• En España
  • Lista de países
  • Para 7 días
  • Temperatura del agua
  • Mapa Satelital
  • El tiempo en el mapa
  • Informadores
  • user-avatar
    Iniciar sesión

    Tiempo cada hora Lenino

    Hoy, 23 Septiembre, Domingo

    Tiempo Temperatura Precipitaciones Viento Presión Humedad
    00:00 +10°C° 1.3 mm 3 mps 736 mmHg 91%
    01:00 +9°C° 1.3 mm 3 mps 736 mmHg 92%
    02:00 +9°C° 1.3 mm 3 mps 736 mmHg 94%
    03:00 +9°C° 1.1 mm 3 mps 736 mmHg 94%
    04:00 +9°C° 1.1 mm 3 mps 736 mmHg 94%
    05:00 +9°C° 1.1 mm 3 mps 736 mmHg 94%
    06:00 +9°C° 0.1 mm 3 mps 736 mmHg 93%
    07:00 +9°C° 0.1 mm 3 mps 736 mmHg 91%
    08:00 +10°C° 0.1 mm 3 mps 736 mmHg 90%
    09:00 +11°C° 0 mm 4 mps 736 mmHg 83%
    10:00 +12°C° 0 mm 4 mps 736 mmHg 76%
    11:00 +13°C° 0 mm 4 mps 736 mmHg 68%
    12:00 +13°C° 0.1 mm 5 mps 736 mmHg 67%
    13:00 +13°C° 0.1 mm 5 mps 735 mmHg 67%
    14:00 +13°C° 0.1 mm 5 mps 735 mmHg 66%
    15:00 +12°C° 0.2 mm 4 mps 735 mmHg 70%
    16:00 +11°C° 0.2 mm 3 mps 735 mmHg 75%
    17:00 +11°C° 0.2 mm 3 mps 735 mmHg 79%
    18:00 +10°C° 0 mm 3 mps 735 mmHg 82%
    19:00 +9°C° 0 mm 3 mps 736 mmHg 86%
    20:00 +8°C° 0 mm 3 mps 736 mmHg 89%
    21:00 +8°C° 0 mm 3 mps 736 mmHg 90%
    22:00 +8°C° 0 mm 3 mps 736 mmHg 91%
    23:00 +7°C° 0 mm 3 mps 736 mmHg 91%

    Mañana, 24 Septiembre, Lunes

    Tiempo Temperatura Precipitaciones Viento Presión Humedad
    00:00 +7°C° 0 mm 3 mps 736 mmHg 92%
    01:00 +7°C° 0 mm 3 mps 736 mmHg 93%
    02:00 +5°C° 0 mm 3 mps 736 mmHg 94%
    03:00 +6°C° 0 mm 2 mps 735 mmHg 95%
    04:00 +6°C° 0 mm 2 mps 735 mmHg 96%
    05:00 +6°C° 0 mm 2 mps 735 mmHg 97%
    06:00 +7°C° 0 mm 2 mps 735 mmHg 93%
    07:00 +7°C° 0 mm 2 mps 735 mmHg 90%
    08:00 +8°C° 0 mm 2 mps 735 mmHg 87%
    09:00 +9°C° 0.4 mm 3 mps 734 mmHg 87%
    10:00 +9°C° 0.4 mm 3 mps 734 mmHg 87%
    11:00 +9°C° 0.4 mm 3 mps 733 mmHg 87%
    12:00 +9°C° 1.8 mm 3 mps 732 mmHg 90%
    13:00 +8°C° 1.8 mm 3 mps 732 mmHg 92%
    14:00 +8°C° 1.8 mm 3 mps 731 mmHg 95%
    15:00 +8°C° 1.7 mm 3 mps 730 mmHg 95%
    16:00 +8°C° 1.7 mm 3 mps 729 mmHg 95%
    17:00 +8°C° 1.7 mm 3 mps 729 mmHg 95%
    18:00 +7°C° 1.7 mm 3 mps 728 mmHg 95%
    19:00 +6°C° 1.7 mm 4 mps 727 mmHg 95%
    20:00 +6°C° 1.7 mm 4 mps 726 mmHg 96%
    21:00 +6°C° 1.7 mm 4 mps 726 mmHg 95%
    22:00 +6°C° 1.7 mm 5 mps 726 mmHg 94%
    23:00 +6°C° 1.7 mm 5 mps 725 mmHg 94%

    Pasado mañana, 25 Septiembre, Martes

    Tiempo Temperatura Precipitaciones Viento Presión Humedad
    00:00 +5°C° 1 mm 6 mps 726 mmHg 93%
    01:00 +5°C° 1 mm 6 mps 726 mmHg 92%
    02:00 +5°C° 1 mm 7 mps 726 mmHg 91%
    03:00 +5°C° 0.6 mm 7 mps 727 mmHg 91%
    04:00 +5°C° 0.6 mm 7 mps 727 mmHg 90%
    05:00 +5°C° 0.6 mm 7 mps 728 mmHg 90%
    06:00 +5°C° 0.4 mm 7 mps 729 mmHg 89%
    07:00 +4°C° 0.4 mm 7 mps 730 mmHg 88%
    08:00 +4°C° 0.4 mm 7 mps 730 mmHg 87%
    09:00 +4°C° 0.2 mm 7 mps 731 mmHg 84%
    10:00 +5°C° 0.2 mm 7 mps 732 mmHg 82%
    11:00 +5°C° 0.2 mm 7 mps 733 mmHg 80%
    12:00 +5°C° 0.1 mm 7 mps 734 mmHg 78%
    13:00 +5°C° 0.1 mm 7 mps 734 mmHg 77%
    14:00 +5°C° 0.1 mm 7 mps 735 mmHg 76%
    15:00 +5°C° 0.1 mm 7 mps 736 mmHg 76%
    16:00 +5°C° 0.1 mm 6 mps 737 mmHg 77%
    17:00 +4°C° 0.1 mm 6 mps 737 mmHg 78%
    18:00 +4°C° 0 mm 6 mps 738 mmHg 77%
    19:00 +3°C° 0 mm 6 mps 739 mmHg 76%
    20:00 +3°C° 0 mm 5 mps 740 mmHg 75%
    21:00 +2°C° 0 mm 5 mps 741 mmHg 73%
    22:00 +2°C° 0 mm 5 mps 741 mmHg 72%
    23:00 +1°C° 0 mm 4 mps 742 mmHg 71%

    26 Septiembre, Miércoles

    Tiempo Temperatura Precipitaciones Viento Presión Humedad
    00:00 +1°C° 0 mm 4 mps 742 mmHg 73%
    01:00 0°C° 0 mm 4 mps 743 mmHg 74%
    02:00 0°C° 0 mm 4 mps 743 mmHg 76%
    03:00 0°C° 0 mm 4 mps 743 mmHg 80%
    04:00 0°C° 0 mm 4 mps 743 mmHg 83%
    05:00 0°C° 0 mm 4 mps 744 mmHg 87%
    06:00 +1°C° 0 mm 4 mps 744 mmHg 83%
    07:00 +3°C° 0 mm 4 mps 744 mmHg 79%
    08:00 +3°C° 0 mm 5 mps 744 mmHg 75%
    09:00 +5°C° 0 mm 5 mps 744 mmHg 71%
    10:00 +6°C° 0 mm 4 mps 744 mmHg 68%
    11:00 +8°C° 0 mm 4 mps 744 mmHg 64%
    12:00 +8°C° 0 mm 4 mps 743 mmHg 66%
    13:00 +9°C° 0 mm 5 mps 743 mmHg 68%
    14:00 +9°C° 0 mm 5 mps 742 mmHg 69%
    15:00 +8°C° 0.3 mm 5 mps 742 mmHg 75%
    16:00 +8°C° 0.3 mm 5 mps 741 mmHg 81%
    17:00 +7°C° 0.3 mm 5 mps 740 mmHg 87%
    18:00 +7°C° 0.7 mm 6 mps 739 mmHg 88%
    19:00 +7°C° 0.7 mm 6 mps 738 mmHg 89%
    20:00 +6°C° 0.7 mm 7 mps 737 mmHg 90%
    21:00 +6°C° 0.7 mm 7 mps 736 mmHg 89%
    22:00 +5°C° 0.7 mm 7 mps 735 mmHg 89%
    23:00 +5°C° 0.7 mm 8 mps 734 mmHg 88%

    27 Septiembre, Jueves

    Tiempo Temperatura Precipitaciones Viento Presión Humedad
    00:00 +5°C° 0.5 mm 8 mps 733 mmHg 88%
    01:00 +6°C° 0.5 mm 8 mps 732 mmHg 88%
    02:00 +6°C° 0.5 mm 8 mps 732 mmHg 88%
    03:00 +6°C° 0.6 mm 7 mps 732 mmHg 89%
    04:00 +7°C° 0.6 mm 6 mps 732 mmHg 90%
    05:00 +7°C° 0.6 mm 6 mps 732 mmHg 90%
    06:00 +8°C° 0.1 mm 5 mps 732 mmHg 88%
    07:00 +8°C° 0.1 mm 5 mps 732 mmHg 85%
    08:00 +8°C° 0.1 mm 4 mps 732 mmHg 83%
    09:00 +10°C° 0.2 mm 4 mps 732 mmHg 79%
    10:00 +10°C° 0.2 mm 4 mps 731 mmHg 74%
    11:00 +11°C° 0.2 mm 4 mps 731 mmHg 70%
    12:00 +10°C° 0.5 mm 4 mps 731 mmHg 73%
    13:00 +9°C° 0.5 mm 5 mps 730 mmHg 76%
    14:00 +9°C° 0.5 mm 5 mps 730 mmHg 79%
    15:00 +8°C° 0.3 mm 4 mps 730 mmHg 81%
    16:00 +8°C° 0.3 mm 4 mps 729 mmHg 82%
    17:00 +8°C° 0.3 mm 4 mps 729 mmHg 83%
    18:00 +7°C° 0.2 mm 4 mps 729 mmHg 84%
    19:00 +7°C° 0.2 mm 4 mps 729 mmHg 85%
    20:00 +6°C° 0.2 mm 4 mps 729 mmHg 86%
    21:00 +6°C° 0.1 mm 4 mps 729 mmHg 86%
    22:00 +6°C° 0.1 mm 4 mps 730 mmHg 87%
    23:00 +5°C° 0.1 mm 4 mps 730 mmHg 87%

    28 Septiembre, Viernes

    Tiempo Temperatura Precipitaciones Viento Presión Humedad
    00:00 +5°C° 0 mm 5 mps 730 mmHg 87%
    01:00 +5°C° 0 mm 5 mps 730 mmHg 87%
    02:00 +3°C° 0 mm 5 mps 730 mmHg 86%
    03:00 +3°C° 0 mm 5 mps 730 mmHg 85%
    04:00 +3°C° 0 mm 5 mps 730 mmHg 84%
    05:00 +3°C° 0 mm 6 mps 730 mmHg 83%
    06:00 +3°C° 0 mm 6 mps 730 mmHg 80%
    07:00 +4°C° 0 mm 6 mps 730 mmHg 77%
    08:00 +4°C° 0 mm 7 mps 731 mmHg 74%
    09:00 +5°C° 0 mm 7 mps 731 mmHg 70%
    10:00 +5°C° 0 mm 7 mps 731 mmHg 66%
    11:00 +6°C° 0 mm 7 mps 732 mmHg 62%
    12:00 +6°C° 0.1 mm 7 mps 732 mmHg 62%
    13:00 +6°C° 0.1 mm 7 mps 732 mmHg 61%
    14:00 +6°C° 0.1 mm 7 mps 732 mmHg 61%
    15:00 +7°C° 0 mm 6 mps 732 mmHg 63%
    16:00 +5°C° 0 mm 6 mps 732 mmHg 65%
    17:00 +6°C° 0 mm 5 mps 732 mmHg 67%
    18:00 +4°C° 0.1 mm 6 mps 733 mmHg 70%
    19:00 +4°C° 0.1 mm 6 mps 733 mmHg 74%
    20:00 +4°C° 0.1 mm 6 mps 733 mmHg 77%
    21:00 +4°C° 0 mm 6 mps 734 mmHg 78%
    22:00 +4°C° 0 mm 6 mps 734 mmHg 79%
    23:00 +4°C° 0 mm 6 mps 734 mmHg 81%
    Mostrar más